Location: Fennell Observatory
(35.2597°N, 89.5125°W)
Time: 05:05:08
(UTC-05:00)

Daily predictions for brighter satellites

Satellite Brightness Start Highest point End
(mag) Time Altitude Azimuth Time Altitude Azimuth Time Altitude Azimuth
Lacrosse 5 4.1 00:14:34 17° NE 00:14:34 17° NE 00:15:43 10° NE
Cosmos 2369 Rocket 3.5 00:28:04 34° NNE 00:28:04 34° NNE 00:31:10 10° NNE
NOSS 3-1 (C) 4.2 00:22:24 10° NNW 00:30:02 63° NE 00:30:26 63° ENE
CZ-2C R/B 4.2 00:45:29 10° NNE 00:48:08 30° NNE 00:48:08 30° NNE
Cosmos 1943 Rocket 3.5 01:15:17 35° NNE 01:15:17 35° NNE 01:18:26 10° NNE
SeaSat 1 4.1 01:30:22 29° NE 01:30:22 29° NE 01:33:41 10° N
NOSS 3-1 (A) 4.5 01:41:32 10° NW 01:47:30 49° WNW 01:47:30 49° WNW
Lacrosse 5 4.0 01:53:43 19° NW 01:54:05 19° NW 01:57:43 10° N
Cosmos 2369 Rocket 4.4 02:09:50 15° WNW 02:10:07 15° NW 02:13:14 10° NNW
ATLAS 2AS CENTAUR R/B 2.9 02:02:45 10° NNW 02:10:51 81° ENE 02:11:23 77° ESE
CZ-3B DEB 4.2 01:44:42 10° NW 02:15:45 73° WSW 02:19:53 51° S
Cosmos 2219 3.8 02:13:37 10° NNW 02:17:54 52° N 02:17:54 52° N
Cosmos 2233 Rocket 4.1 02:23:43 69° NE 02:23:43 69° NE 02:29:11 10° N
Cosmos 2227 Rocket 4.3 02:21:48 10° N 02:26:07 22° ENE 02:30:24 10° ESE
Cosmos 2278 4.4 02:38:18 46° E 02:38:18 46° E 02:43:09 10° NNE
IRS-P3 4.5 02:34:24 10° NNE 02:38:49 62° NNE 02:38:49 62° NNE
Cosmos 2297 Rocket 4.3 02:43:37 10° N 02:48:03 23° ENE 02:52:28 10° ESE
SL-08 R/B 3.9 02:57:30 51° N 02:57:30 51° N 03:01:01 10° N
Cosmos 1943 Rocket 4.3 02:56:48 14° WNW 02:57:12 14° NW 03:00:12 10° NNW
NPP 3.8 02:57:47 10° N 03:02:39 63° NW 03:02:39 63° NW
IRAS Rocket 4.1 02:57:54 10° NNE 03:03:28 84° NW 03:03:28 84° NW
ATLAS CENTAUR R/B 2.7 03:09:11 41° ESE 03:09:11 41° ESE 03:13:41 10° NE
Resurs 1-4 Rocket 3.2 03:06:20 10° NNE 03:11:08 36° E 03:12:18 32° SE
SL-16 R/B 3.5 03:07:20 15° SE 03:12:02 43° ENE 03:17:47 10° N
Cosmos 1898 Rocket 4.4 03:10:50 10° N 03:15:59 46° ENE 03:18:52 24° SE
Cosmos 2034 Rocket 4.1 03:14:41 52° SSE 03:16:09 69° E 03:22:19 10° NNE
Cosmos 44 3.6 03:12:46 10° NNW 03:17:03 62° NNW 03:17:03 62° NNW
NOSS 2-1 (E) 4.0 03:21:03 52° NE 03:21:03 52° NE 03:24:26 10° NE
Okean O Rocket 4.2 03:18:17 10° ENE 03:20:18 13° E 03:22:19 10° ESE
CBERS 1 LM4 rocket 4.5 03:17:01 10° N 03:21:24 66° NW 03:21:24 66° NW
ADEOS 3.4 03:18:13 10° N 03:23:27 77° WNW 03:23:34 76° W
ERS-2 3.6 03:23:45 10° N 03:26:03 33° NNW 03:26:03 33° NNW
Milstar 3 Cent rocket 3.0 03:28:17 37° SSE 03:28:17 37° SSE 03:34:20 10° E
Cosmos 1707 3.3 03:27:11 10° N 03:30:34 58° NNE 03:30:34 58° NNE
Cosmos 220 Rocket 4.4 03:26:53 10° N 03:31:10 59° ENE 03:31:42 54° ESE
BREEZE-M DEB (TANK) 4.3 03:29:58 35° W 03:31:32 43° NW 03:34:40 10° NE
Cosmos 1937 Rocket 4.4 03:27:11 10° N 03:32:09 45° ENE 03:36:55 11° SE
Cosmos 1763 Rocket 4.2 03:35:24 37° SSE 03:36:53 48° ESE 03:41:54 10° NNE
SME Rocket 4.0 03:34:56 34° SSE 03:37:20 77° ENE 03:44:45 10° NNW
UNK 4.3 03:36:38 34° SE 03:38:29 58° ENE 03:43:05 10° N
GPS 2-04 Rocket1 3.5 03:40:11 43° E 03:40:11 43° E 03:42:55 10° E
ARIANE 5 R/B 2.4 03:34:21 10° NNE 03:39:29 88° WNW 03:40:22 63° SSW
Cosmos 1656 3.6 03:42:41 53° SSW 03:44:06 85° ESE 03:49:48 10° NNE
OAO 1 4.4 03:44:21 56° WSW 03:45:33 85° S 03:51:03 10° E
BREEZE-M DEB (TANK) 2.9 03:40:19 10° NW 03:45:41 51° WNW 03:45:41 51° WNW
IRS P6 4.5 03:42:54 10° N 03:48:10 78° WNW 03:49:21 54° SSW
Spot 4 Rocket 4.4 03:45:28 10° N 03:50:24 47° WNW 03:51:02 44° W
Cosmos-2242 4.4 03:49:21 21° SE 03:51:30 34° E 03:55:25 10° NNE
Meteor 2-5 Rocket 3.8 03:45:50 10° NNW 03:51:37 60° W 03:53:09 45° SSW
ASTRO E2 3.6 03:52:59 36° SE 03:52:59 36° SE 03:55:46 10° ESE
Cosmos 1697 Rocket 2.7 03:55:03 42° S 03:57:05 81° ESE 04:02:46 10° NNE
Cosmos 2082 3.6 03:52:10 10° NNW 03:57:45 66° WSW 04:00:19 32° S
ATLAS 2AS CENTAUR R/B 4.5 03:55:54 10° WNW 03:58:44 16° W 03:58:44 16° W
CZ-2D R/B 2.1 03:55:59 10° N 04:01:27 75° WNW 04:03:24 41° SSW
IRS-1D 3.6 03:56:37 10° N 04:01:29 57° WNW 04:02:37 46° WSW
Cosmos 2298 Rocket 4.1 03:57:09 10° NNW 04:02:19 54° WSW 04:03:36 43° SSW
Cosmos 1980 Rocket 2.7 04:01:10 26° S 04:04:11 54° ESE 04:09:40 10° NNE
Cosmos 1634 Rocket 4.4 04:00:38 18° S 04:05:19 63° E 04:11:31 10° NNE
Cosmos 2227 Rocket 2.4 04:04:58 10° NNW 04:10:23 47° WSW 04:12:25 33° SSW
Cosmos 2322 Rocket 4.2 04:09:54 10° SSE 04:14:15 23° E 04:18:34 10° NE
Okean 3 Rocket 4.2 04:13:16 10° NNW 04:17:17 35° W 04:17:27 35° W
Cosmos 1766 3.7 04:21:31 39° WSW 04:22:04 42° W 04:25:51 10° N
IRS-1C Rocket 4.2 04:17:00 10° NNE 04:22:16 76° ESE 04:26:05 19° S
Cosmos 1092 Rocket 3.9 04:16:39 10° N 04:22:57 83° W 04:29:17 10° S
ADEOS II 4.4 04:21:54 10° NE 04:25:49 21° E 04:29:41 10° SE
GEOS 3 Rocket 3.8 04:24:38 10° SSE 04:29:41 49° WSW 04:34:42 10° NW
Cosmos 1758 3.2 04:29:52 28° SSW 04:31:55 77° W 04:35:57 10° N
Cosmos 2297 Rocket 2.5 04:26:55 10° NW 04:32:15 44° WSW 04:37:17 11° S
BREEZE-M R/B 4.4 04:30:13 10° WNW 04:35:54 55° SW 04:44:01 10° SSE
UNKNOWN OBJECT B 3.6 04:32:46 10° N 04:36:20 34° WNW 04:37:27 28° WSW
Cosmos 2360 4.4 04:33:15 17° SSW 04:37:44 74° ESE 04:43:27 10° NNE
OAO 3 Rocket 4.2 04:38:00 25° SSW 04:38:07 25° SSW 04:41:56 10° SSE
Cosmos 332 Rocket 4.5 04:33:48 12° S 04:38:09 52° ESE 04:42:49 10° NNE
Cosmos 1953 2.4 04:36:41 27° SSW 04:38:42 60° W 04:42:43 10° N
CZ-2D R/B 3.9 04:35:32 10° N 04:39:41 48° WNW 04:42:00 24° SW
Cosmos 990 Rocket 4.1 04:35:54 10° NNW 04:41:01 54° WSW 04:46:06 10° S
SL-16 R/B 3.3 04:39:56 10° S 04:45:12 42° ESE 04:50:30 10° NE
Cosmos 2142 Rocket 4.5 04:40:15 16° SSW 04:45:16 63° W 04:51:21 10° N
Meteor 1-24 Rocket 4.5 04:40:35 10° NNW 04:45:41 34° W 04:49:28 17° SW
ISS -0.9 04:43:04 10° NNW 04:45:52 26° NE 04:48:39 10° E
EO 1 Del DPAF 4.4 04:45:26 23° WSW 04:45:52 24° W 04:49:03 10° NW
ATLAS CENTAUR R/B 3.3 04:45:31 16° W 04:48:13 24° NW 04:52:16 10° N
Resurs 1-4 Rocket 3.4 04:46:35 10° NNW 04:50:45 24° WNW 04:53:23 17° WSW
Cosmos 1378 4.3 04:49:51 10° NW 04:53:01 25° W 04:54:15 21° WSW
PAYLOAD B 4.2 04:48:04 10° N 04:53:41 73° WNW 04:59:12 10° SSW
SL-16 R/B 3.5 04:52:26 17° SW 04:55:44 26° W 05:00:46 10° NW
Okean O Rocket 2.0 04:52:40 10° N 04:56:53 46° WNW 05:00:11 16° SW
Cosmos 1805 3.9 04:55:11 20° SW 04:57:27 37° W 05:01:06 10° N
Cosmos 371 Rocket 3.9 04:54:42 10° S 04:59:24 57° ESE 05:04:08 10° NNE
Cosmos 1500 Rocket 3.6 04:55:02 10° N 04:59:28 83° E 05:03:49 10° S
Cosmos 2279 Rocket 4.0 04:56:49 10° S 05:03:04 76° W 05:09:21 10° N
Aureole 1 Rocket 4.0 04:57:53 10° SSW 05:03:07 81° ESE 05:10:08 10° NNE
Cosmos 1743 Rocket 3.6 04:59:12 10° NNW 05:03:27 56° W 05:07:42 10° S
Cosmos 1125 Rocket 3.4 04:58:58 10° NNW 05:04:12 84° WSW 05:09:23 10° SSE
Aurora 2 Rocket 3.7 05:03:59 13° SSW 05:05:01 14° S 05:06:57 10° SE
Cosmos 1441 Rocket 4.5 05:02:29 10° NW 05:05:43 24° W 05:08:12 14° SW
CZ-4B R/B 3.4 05:01:37 10° N 05:07:03 56° WNW 05:12:20 10° SSW
RESURS DK-1 4.1 05:06:18 10° N 05:10:10 37° ENE 05:14:01 10° SE
Cosmos 1733 3.1 05:10:01 10° S 05:13:47 88° W 05:17:36 10° N
Cosmos 1655 Rocket 4.1 05:07:52 10° NNW 05:14:10 62° W 05:20:27 10° S
Cosmos 2151 3.8 05:10:39 10° N 05:14:54 55° E 05:19:07 10° SSE
Cosmos 2227 4.2 05:10:01 10° NNW 05:15:48 80° WSW 05:21:32 10° SSE
ARGOS Delta rocket 4.2 05:13:30 10° N 05:18:29 50° WNW 05:23:10 10° SSW
GPS 2-04 Rocket1 2.6 05:15:06 10° W 05:19:00 83° N 05:22:42 10° E
Feng Yun 1-1 Rocket 4.4 05:14:51 10° NNE 05:20:30 82° ESE 05:25:59 10° SSW
NOSS 3-4 (A) 4.3 05:17:46 10° NW 05:24:13 38° WSW 05:30:58 10° S
NOSS 3-4 (C) 4.3 05:17:51 10° NW 05:24:21 38° WSW 05:31:09 10° S
CSL-04 DEB 4.3 05:24:05 10° N 05:28:01 75° WNW 05:31:56 10° SSW
Thor Agena Rocket 3.8 05:24:08 10° S 05:28:55 44° W 05:33:44 10° NNW
Cosmos 2221 2.7 05:25:34 10° S 05:29:48 76° E 05:34:06 10° N
CZ-4B R/B 4.0 05:27:57 10° NNW 05:31:14 25° WNW 05:34:22 10° SW
ASTRO E2 3.6 05:28:35 10° WSW 05:32:11 31° SSW 05:35:47 10° SE
Cosmos 1437 4.2 05:29:43 10° NW 05:32:19 21° W 05:34:54 10° SW
Cosmos 2266 Rocket 4.4 05:27:47 10° N 05:33:54 69° E 05:40:06 10° SSE
Okean-O 2.9 05:32:12 10° N 05:36:31 53° WNW 05:40:50 10° SSW
ADEOS Rocket 3.4 05:31:54 10° NNE 05:38:24 85° WNW 05:45:38 10° SSW
